Vorticity
24 16 21 19 14 33 31 9 18 15 13 14 25 44 13 8 47 16 18 18 10 5 6 5 8 7 4 6 7 6 7 8 5 3 4 2 0 3 0 1 1 2 1 2 3
19 14 10 5 16 15 26 24 14 16 6 22 23 44 4 35 1 42 18 12 19 8 6 6 6 7 6 5 6 7 6 4 7 5 2 4 0 -1 0 1 2 1 2 2 2
15 -0 5 14 18 11 18 26 13 5 11 23 29 35 6 6 13 27 11 14 23 10 7 5 5 6 7 5 6 7 5 6 6 3 3 5 3 1 0 1 1 2 2 2 2
11 -7 11 21 3 7 -4 31 22 45 22 17 27 36 -30 40 9 33 17 12 27 14 9 6 6 6 6 3 4 5 5 4 7 5 2 3 4 2 2 1 1 1 2 2 3
2 -1 19 12 3 5 10 12 39 26 25 13 25 20 -7 19 17 31 18 10 13 26 11 8 6 8 7 5 4 5 5 4 4 4 6 3 3 1 3 2 2 2 2 2 3
10 6 16 12 11 7 14 7 -4 25 19 29 23 24 6 -5 21 30 15 4 20 29 19 10 6 9 10 7 4 4 4 5 5 3 5 5 6 2 2 1 2 2 2 2 3
15 -3 -2 5 -6 2 22 6 7 20 16 19 26 11 13 19 -8 33 15 10 -22 43 25 12 7 5 7 7 5 3 4 4 4 5 4 3 4 3 3 3 3 3 3 3 3
15 3 10 4 4 -3 25 12 5 6 12 11 17 18 16 14 25 28 14 15 8 -9 35 15 14 8 5 8 7 1 3 3 3 4 4 4 4 3 3 3 2 3 3 3 4
36 19 6 8 15 3 21 9 14 9 -7 15 18 9 7 16 18 27 8 18 6 -3 24 18 14 6 7 7 7 6 4 3 3 4 3 3 3 3 4 4 3 3 3 5 5
24 25 44 3 14 26 6 -4 12 21 11 7 10 31 12 4 33 20 14 13 12 18 16 27 14 10 5 5 9 8 6 3 5 6 5 5 4 6 5 5 4 4 1 4 -1
10 17 14 23 21 7 9 12 25 22 20 13 -15 -1 29 20 30 22 11 7 -11 11 13 31 20 15 10 9 7 12 9 9 7 5 5 4 5 7 5 5 4 3 -2 3 7
13 15 17 9 4 13 15 5 -2 19 15 24 21 10 18 25 30 15 9 4 1 -1 4 12 22 13 11 12 7 10 6 9 5 6 4 5 5 5 5 6 5 4 5 7 12
9 13 11 15 22 23 21 21 7 16 5 -10 23 15 39 31 27 21 13 4 1 -1 7 8 28 12 13 11 11 8 10 8 7 6 9 8 5 5 4 4 4 8 11 15 10
9 15 17 18 19 12 7 9 6 12 18 15 7 9 31 26 18 -5 57 21 18 27 15 6 14 18 11 9 9 9 6 9 6 7 5 5 9 8 9 6 8 8 11 8 7
8 9 8 5 16 22 21 13 24 24 18 14 26 37 15 15 -7 15 21 30 32 18 3 0 14 17 11 10 11 7 7 11 10 6 5 8 9 9 9 13 13 9 8 7 9
4 1 3 3 5 4 7 9 11 9 16 13 7 10 9 15 6 -1 4 1 23 9 -8 11 18 12 12 9 10 8 11 9 12 10 8 9 11 11 11 11 9 7 8 9 9
-2 -6 -4 1 3 6 4 4 3 11 7 9 22 7 3 7 12 13 11 21 -4 29 27 13 22 9 12 8 10 9 10 4 6 7 9 10 9 10 7 4 7 8 8 7 6
16 2 12 0 3 6 5 3 10 8 16 13 6 6 10 10 17 9 9 6 16 6 16 11 11 9 11 9 7 6 7 6 3 6 8 7 6 5 6 8 8 7 8 6 5
4 9 19 14 19 16 12 9 8 -1 8 13 9 7 6 9 11 19 18 17 15 9 11 11 12 7 12 8 8 7 5 6 8 8 7 7 8 7 5 6 7 5 4 4 6
10 7 6 7 8 12 26 30 -2 28 12 8 15 13 9 9 10 12 11 2 14 15 20 17 14 10 8 9 8 8 8 7 8 7 7 4 6 5 6 7 4 3 3 4 2
7 10 11 10 10 8 3 11 12 23 14 10 23 4 11 16 11 12 17 1 17 19 26 14 16 10 9 9 8 8 11 6 5 6 6 6 7 6 5 4 4 4 6 10 9
4 6 7 7 9 12 14 11 8 39 16 19 17 15 13 10 14 4 20 2 24 27 2 34 15 17 19 9 10 7 6 5 6 8 8 7 6 4 4 3 6 13 8 6 19
4 4 4 6 7 9 10 11 14 8 43 19 15 -0 15 15 8 17 13 14 5 -1 21 5 21 12 10 13 16 10 9 5 9 6 8 3 2 6 8 13 8 5 10 20 6
12 4 3 4 6 6 8 9 9 12 11 24 18 19 13 22 16 24 20 15 22 18 9 16 6 20 13 15 14 13 9 11 6 6 6 7 4 6 11 11 9 15 14 4 12
10 12 6 4 4 6 7 7 8 9 11 13 16 18 18 20 15 19 20 15 12 10 11 14 12 12 12 11 12 8 8 6 5 3 2 5 8 16 6 15 7 9 4 8 5
7 9 10 10 5 5 6 8 7 5 8 10 12 15 17 18 13 16 24 4 10 6 5 6 6 6 8 8 6 6 5 5 5 5 18 15 8 16 22 4 4 7 7 5 6
9 6 8 9 12 6 4 5 6 8 6 7 11 12 13 18 18 14 14 13 8 9 5 6 3 4 6 4 6 7 10 12 14 9 5 19 16 2 9 4 7 4 4 4 5
Height
5659 5647 5636 5626 5613 5602 5597 5597 5597 5597 5598 5599 5600 5605 5620 5629 5638 5653 5669 5683 5701 5717 5731 5744 5756 5765 5775 5785 5793 5801 5810 5818 5822 5829 5837 5844 5849 5857 5861 5865 5868 5871 5870 5875 5877
5654 5645 5635 5626 5615 5604 5597 5592 5591 5590 5591 5591 5591 5597 5613 5623 5631 5641 5658 5672 5686 5703 5719 5734 5745 5756 5767 5778 5787 5796 5805 5811 5818 5824 5834 5839 5845 5853 5856 5858 5864 5868 5869 5872 5874
5651 5643 5634 5625 5616 5606 5598 5592 5588 5586 5585 5585 5586 5592 5607 5618 5623 5632 5649 5661 5676 5690 5707 5721 5734 5747 5759 5772 5781 5790 5798 5807 5813 5818 5828 5835 5840 5846 5851 5855 5860 5865 5866 5868 5870
5648 5640 5632 5624 5615 5607 5599 5590 5584 5579 5580 5582 5583 5590 5604 5608 5617 5627 5641 5653 5666 5681 5696 5710 5726 5737 5749 5762 5773 5783 5794 5800 5808 5814 5825 5833 5836 5842 5847 5853 5857 5859 5862 5864 5866
5645 5638 5631 5624 5616 5608 5600 5592 5583 5578 5579 5581 5582 5589 5600 5606 5613 5623 5633 5646 5660 5672 5687 5702 5718 5732 5742 5754 5765 5777 5787 5794 5802 5809 5822 5828 5831 5838 5844 5849 5851 5854 5858 5860 5862
5642 5637 5630 5623 5616 5610 5603 5594 5588 5583 5580 5580 5583 5590 5597 5605 5610 5619 5630 5646 5658 5668 5680 5696 5711 5724 5736 5745 5758 5771 5779 5788 5797 5806 5816 5824 5829 5832 5839 5844 5847 5849 5853 5856 5858
5641 5636 5630 5623 5617 5610 5604 5598 5591 5586 5585 5584 5587 5590 5596 5603 5610 5618 5629 5643 5657 5668 5676 5689 5694 5713 5725 5738 5751 5764 5774 5783 5792 5802 5810 5817 5824 5828 5834 5839 5843 5846 5848 5851 5853
5639 5635 5629 5624 5618 5612 5605 5600 5595 5591 5589 5588 5590 5594 5599 5604 5610 5619 5628 5640 5654 5660 5669 5682 5693 5704 5719 5733 5744 5757 5768 5777 5786 5795 5804 5811 5818 5823 5828 5833 5837 5842 5844 5847 5848
5638 5633 5629 5625 5619 5613 5607 5602 5598 5594 5592 5592 5593 5595 5599 5604 5610 5618 5627 5637 5649 5658 5667 5674 5687 5701 5717 5728 5739 5752 5763 5772 5781 5790 5798 5805 5812 5818 5824 5829 5834 5838 5839 5842 5843
5641 5634 5628 5624 5620 5614 5608 5603 5599 5597 5595 5594 5595 5598 5601 5605 5609 5616 5626 5636 5647 5658 5666 5675 5686 5701 5714 5729 5737 5747 5756 5767 5778 5787 5793 5799 5808 5815 5820 5825 5828 5831 5834 5836 5837
5646 5637 5630 5625 5619 5615 5610 5606 5603 5600 5597 5596 5597 5599 5602 5605 5609 5617 5628 5637 5646 5658 5666 5674 5688 5701 5717 5728 5736 5746 5756 5767 5775 5782 5789 5796 5804 5811 5816 5820 5823 5825 5828 5830 5832
5651 5644 5635 5629 5623 5618 5613 5610 5606 5603 5600 5599 5600 5601 5603 5606 5611 5619 5629 5640 5649 5658 5666 5677 5687 5698 5711 5723 5733 5740 5750 5762 5772 5779 5786 5792 5800 5805 5810 5814 5817 5820 5823 5826 5827
5657 5649 5642 5635 5628 5623 5617 5614 5609 5607 5605 5603 5603 5604 5605 5610 5616 5624 5633 5642 5650 5659 5668 5678 5688 5695 5708 5717 5726 5737 5750 5759 5768 5775 5781 5788 5793 5800 5806 5807 5812 5815 5818 5820 5822
5665 5656 5649 5642 5635 5629 5623 5618 5614 5612 5610 5610 5609 5610 5611 5614 5620 5628 5634 5641 5648 5657 5665 5675 5685 5694 5703 5712 5725 5736 5748 5756 5763 5770 5777 5783 5790 5796 5802 5805 5807 5810 5813 5815 5816
5673 5665 5658 5649 5643 5636 5631 5624 5620 5617 5615 5616 5614 5614 5616 5624 5627 5630 5636 5641 5649 5658 5669 5676 5683 5695 5705 5715 5727 5739 5746 5754 5761 5768 5775 5781 5788 5792 5797 5800 5803 5805 5807 5809 5810
5680 5674 5666 5659 5652 5645 5639 5634 5630 5625 5621 5622 5621 5622 5626 5631 5633 5637 5642 5649 5655 5661 5666 5675 5685 5694 5705 5716 5726 5735 5743 5751 5760 5766 5772 5779 5785 5788 5792 5796 5798 5801 5803 5804 5805
5686 5680 5673 5667 5660 5653 5648 5643 5637 5632 5630 5630 5629 5629 5631 5634 5637 5642 5646 5652 5658 5662 5670 5677 5685 5694 5703 5712 5722 5731 5739 5747 5755 5761 5770 5776 5780 5784 5789 5791 5794 5797 5798 5800 5800
5690 5684 5679 5672 5666 5660 5654 5651 5648 5641 5637 5637 5637 5637 5640 5640 5641 5644 5647 5653 5658 5665 5672 5678 5686 5694 5703 5713 5723 5730 5740 5747 5754 5761 5768 5772 5775 5780 5784 5787 5789 5792 5793 5794 5795
5693 5688 5681 5677 5672 5666 5660 5657 5651 5648 5646 5645 5645 5645 5646 5647 5650 5653 5655 5659 5663 5668 5674 5680 5688 5695 5705 5713 5722 5729 5737 5746 5752 5759 5764 5768 5773 5776 5779 5782 5785 5787 5788 5788 5788
5697 5692 5687 5682 5676 5671 5665 5661 5656 5652 5651 5650 5650 5649 5650 5651 5655 5657 5661 5665 5668 5672 5677 5683 5690 5696 5703 5710 5718 5727 5735 5743 5750 5756 5760 5765 5769 5772 5775 5778 5780 5781 5782 5783 5782
5702 5696 5692 5686 5680 5676 5671 5666 5661 5656 5654 5653 5653 5653 5653 5655 5658 5660 5664 5668 5672 5675 5678 5684 5691 5698 5705 5712 5719 5726 5734 5741 5747 5753 5757 5762 5767 5768 5771 5773 5775 5776 5776 5776 5775
5706 5701 5696 5691 5686 5681 5676 5671 5667 5662 5659 5657 5656 5656 5657 5659 5660 5664 5666 5670 5674 5677 5682 5686 5693 5700 5708 5714 5719 5725 5732 5739 5745 5752 5756 5759 5764 5765 5767 5769 5770 5770 5769 5769 5768
5708 5704 5700 5696 5691 5686 5682 5677 5673 5669 5665 5663 5663 5662 5661 5662 5664 5664 5668 5672 5676 5681 5685 5691 5696 5702 5708 5715 5720 5725 5731 5737 5744 5748 5752 5755 5759 5760 5762 5765 5764 5763 5763 5764 5764
5710 5707 5704 5700 5696 5692 5687 5684 5679 5676 5673 5670 5668 5666 5666 5666 5667 5667 5670 5674 5679 5683 5687 5693 5698 5705 5712 5718 5723 5727 5731 5737 5741 5745 5749 5751 5754 5756 5758 5759 5757 5757 5758 5759 5759
5711 5708 5705 5703 5700 5696 5693 5689 5686 5682 5679 5677 5674 5672 5670 5671 5671 5672 5673 5677 5682 5687 5691 5696 5701 5706 5712 5717 5722 5726 5731 5735 5740 5743 5744 5747 5749 5751 5752 5752 5751 5753 5754 5754 5754
5712 5709 5706 5704 5703 5701 5697 5695 5692 5689 5686 5683 5681 5679 5677 5676 5677 5678 5681 5684 5687 5691 5694 5699 5704 5708 5713 5718 5723 5726 5730 5734 5737 5740 5742 5742 5744 5745 5747 5747 5747 5749 5749 5749 5748
5711 5709 5707 5705 5704 5703 5701 5699 5696 5694 5692 5689 5687 5686 5685 5683 5683 5683 5685 5688 5691 5694 5698 5702 5707 5711 5715 5719 5723 5727 5729 5731 5733 5735 5736 5738 5738 5742 5742 5741 5744 5743 5743 5743 5743